Regional Weather Roundup
Issued by NWS Charleston, WV

Home | Current Version | Previous Version | Text Only | Print | Product List | Glossary Off
Versions: 1 2 3 4 5 6 7 8 9 10 11 12 13 14 15 16 17 18 19 20 21 22 23 24 25 26 27 28 29 30 31 32 33 34 35 36 37 38 39 40 41 42 43 44 45 46 47 48 49 50

000
ASUS41 KRLX 301010
RWRRLX
West Virginia Regional Weather Roundup
National Weather Service Charleston WV
600 AM EDT TUE SEP 30 2014

Note: "fair" indicates few or no clouds below 12,000 feet with no
significant weather and/or obstructions to visibility.

WVZ003-301100-
Northern Panhandle of West Virginia

CITY           SKY/WX    TMP DP  RH WIND       PRES   REMARKS
WHEELING       PTCLDY    57  56  96 S7        29.90R FOG
$$

WVZ009-301100-
Northwest West Virginia

CITY           SKY/WX    TMP DP  RH WIND       PRES   REMARKS
PARKERSBURG    CLOUDY    52  51  97 CALM      29.93S FOG
$$

WVZ006-301100-
Western West Virginia

CITY           SKY/WX    TMP DP  RH WIND       PRES   REMARKS
HUNTINGTON     FOG       55  55 100 CALM      29.92R VSB 1/4
$$

WVZ015-301100-
West Central West Virginia

CITY           SKY/WX    TMP DP  RH WIND       PRES   REMARKS
CHARLESTON     FOG       59  58  96 CALM      29.92S VSB 1/2
$$

WVZ031-301100-
North Central West Virginia

CITY           SKY/WX    TMP DP  RH WIND       PRES   REMARKS
CLARKSBURG     CLEAR     54  53  97 CALM      29.92S
MORGANTOWN     PTCLDY    59  54  83 CALM      29.93R
$$

WVZ035-042-045-301100-
South Central West Virginia

CITY           SKY/WX    TMP DP  RH WIND       PRES   REMARKS
BECKLEY        CLEAR     56  54  93 S3        29.99R
BLUEFIELD      CLEAR     58  54  86 W8        30.01R
LEWISBURG      FOG       56  54  93 CALM      29.98S VSB 1/4
$$

WVZ047-301100-
Northern Mountains of West Virginia

CITY           SKY/WX    TMP DP  RH WIND       PRES   REMARKS
ELKINS         FOG       54  54 100 W3        29.97S VSB 1/4
$$

WVZ052-301100-
Eastern Panhandle of West Virginia

CITY           SKY/WX    TMP DP  RH WIND       PRES   REMARKS
MARTINSBURG    FOG       56  54  93 CALM      29.91R VSB 1/4
PETERSBURG     FOG      N/A N/A N/A CALM      29.94S VSB 1/4
$$



USA.gov is the U.S. government's official web portal to all federal, state and local government web resources and services.